Zurück zum Katalog

STARLINK-4402

AktivKommunikationPO
NORAD 53509·PAYLOAD·🇺🇸 United States

Gestartet Aug 12, 2022 von Vandenberg Space Force Base

Loading…

Nächste Überflüge (nächste 24 Stunden)

TLE

AktuellSource: CelesTrak SupGP

Epoche: Sep 15, 2026, 02:15 UTC

1 53509C 22099AW  26258.09423611  .00234520  00000+0  17550-2 0  2586
2 53509  97.6053  28.1527 0001520  76.8162  85.5437 15.72546098    17

Verfolge STARLINK-4402 in Echtzeit mit AllMySat

Download on the App Store